TimeMST,TemperatureF,Dew PointF,Humidity,Sea Level PressureIn,VisibilityMPH,Wind Direction,Wind SpeedMPH,Gust SpeedMPH,PrecipitationIn,Events,Conditions,WindDirDegrees,DateUTC
12:56 AM,37.0,35.1,93,29.55,10.0,SSE,4.6,-,0.01,,Overcast,160,2013-12-02 07:56:00
1:56 AM,37.0,35.1,93,29.54,10.0,Calm,Calm,-,N/A,,Overcast,0,2013-12-02 08:56:00
2:15 AM,36.0,34.0,93,29.51,10.0,South,3.5,-,N/A,,Overcast,190,2013-12-02 09:15:00
2:56 AM,35.1,32.0,89,29.52,10.0,SSW,4.6,-,N/A,,Mostly Cloudy,210,2013-12-02 09:56:00
3:56 AM,34.0,30.9,89,29.51,10.0,West,8.1,-,N/A,,Mostly Cloudy,260,2013-12-02 10:56:00
4:56 AM,33.1,30.9,92,29.49,10.0,West,5.8,-,N/A,,Scattered Clouds,270,2013-12-02 11:56:00
5:56 AM,32.0,30.0,92,29.50,10.0,West,8.1,-,N/A,,Clear,280,2013-12-02 12:56:00
6:20 AM,33.1,30.9,92,29.47,10.0,West,9.2,-,N/A,,Mostly Cloudy,280,2013-12-02 13:20:00
6:52 AM,33.8,30.2,87,29.48,10.0,WNW,5.8,-,N/A,,Overcast,300,2013-12-02 13:52:00
6:56 AM,33.1,30.9,92,29.53,10.0,WNW,5.8,-,N/A,,Overcast,300,2013-12-02 13:56:00
7:09 AM,33.1,30.9,92,29.48,10.0,West,6.9,-,N/A,,Overcast,270,2013-12-02 14:09:00
7:56 AM,34.0,32.0,92,29.52,10.0,West,5.8,-,N/A,,Overcast,270,2013-12-02 14:56:00
8:13 AM,34.0,32.0,92,29.49,10.0,WNW,6.9,-,N/A,,Overcast,300,2013-12-02 15:13:00
8:32 AM,34.0,32.0,92,29.49,1.8,NW,5.8,-,N/A,,Overcast,310,2013-12-02 15:32:00
8:42 AM,34.0,32.0,92,29.48,0.2,NW,5.8,-,N/A,Fog,Fog,320,2013-12-02 15:42:00
8:56 AM,34.0,32.0,92,29.53,0.2,NNW,4.6,-,N/A,Fog,Fog,330,2013-12-02 15:56:00
9:56 AM,35.1,33.1,92,29.57,0.2,NNW,4.6,-,N/A,Fog,Fog,340,2013-12-02 16:56:00
10:05 AM,35.1,33.1,92,29.51,0.5,North,5.8,-,N/A,Fog,Fog,10,2013-12-02 17:05:00
10:26 AM,34.0,32.0,92,29.52,1.2,NNE,8.1,-,N/A,,Overcast,30,2013-12-02 17:26:00
10:56 AM,33.1,30.9,92,29.57,1.5,NE,10.4,-,N/A,,Overcast,50,2013-12-02 17:56:00
11:03 AM,32.0,30.0,92,29.51,0.2,NNE,12.7,-,N/A,Fog,Fog,30,2013-12-02 18:03:00
11:56 AM,30.0,28.0,92,29.57,0.2,NE,13.8,-,N/A,Fog,Light Freezing Fog,40,2013-12-02 18:56:00
12:20 PM,28.9,27.0,92,29.51,0.5,NNE,15.0,-,N/A,Fog,Light Freezing Fog,30,2013-12-02 19:20:00
12:56 PM,28.0,26.1,92,29.60,0.8,NE,10.4,-,N/A,,Overcast,40,2013-12-02 19:56:00
1:36 PM,27.0,25.0,92,29.54,1.0,NE,13.8,-,N/A,,Overcast,40,2013-12-02 20:36:00
1:56 PM,26.1,24.1,92,29.61,1.2,NE,11.5,-,N/A,,Overcast,40,2013-12-02 20:56:00
2:56 PM,25.0,21.9,88,29.64,1.0,ENE,12.7,-,0.00,Snow,Light Snow,60,2013-12-02 21:56:00
3:30 PM,24.1,21.0,88,29.57,2.0,NE,15.0,-,0.00,,Overcast,50,2013-12-02 22:30:00
3:56 PM,23.0,19.9,88,29.67,3.0,ENE,16.1,-,0.00,,Overcast,60,2013-12-02 22:56:00
4:56 PM,21.9,19.0,89,29.69,3.0,ENE,15.0,-,N/A,,Overcast,60,2013-12-02 23:56:00
5:56 PM,19.9,17.1,89,29.71,3.0,NE,16.1,-,0.00,Snow,Light Snow,50,2013-12-03 00:56:00
6:31 PM,19.9,16.0,85,29.64,2.5,ENE,15.0,-,0.00,Snow,Light Snow,60,2013-12-03 01:31:00
6:40 PM,19.9,16.0,85,29.65,3.0,NE,15.0,-,0.00,Snow,Light Snow,50,2013-12-03 01:40:00
6:46 PM,19.9,16.0,85,29.65,4.0,ENE,12.7,-,0.00,Snow,Light Snow,60,2013-12-03 01:46:00
6:56 PM,19.0,16.0,88,29.74,2.0,NE,13.8,21.9,0.00,Snow,Light Snow,50,2013-12-03 01:56:00
7:07 PM,19.0,16.0,88,29.65,1.8,NE,18.4,21.9,0.00,Snow,Light Snow,50,2013-12-03 02:07:00
7:29 PM,19.0,15.1,85,29.64,2.0,NE,19.6,25.3,0.00,Snow,Light Snow,50,2013-12-03 02:29:00
7:40 PM,19.0,15.1,85,29.66,7.0,ENE,17.3,24.2,0.00,Snow,Light Snow,60,2013-12-03 02:40:00
7:56 PM,19.0,15.1,85,29.75,7.0,NE,17.3,-,0.00,,Overcast,50,2013-12-03 02:56:00
8:56 PM,19.0,16.0,88,29.77,7.0,ENE,16.1,-,N/A,,Overcast,60,2013-12-03 03:56:00
9:56 PM,18.0,15.1,88,29.78,6.0,NE,20.7,-,N/A,,Overcast,50,2013-12-03 04:56:00
10:56 PM,18.0,14.0,84,29.81,10.0,NE,16.1,-,N/A,,Overcast,50,2013-12-03 05:56:00
11:56 PM,18.0,15.1,88,29.83,9.0,ENE,16.1,-,N/A,,Overcast,60,2013-12-03 06:56:00